Flag for Germany Weather past 2 weeks in Weyhe, Lower Saxony, Germany

Now
45 °F

Overcast.


Feels Like: 40 °F
Forecast: 37 / 51 °F
Wind: 8 mph from Southwest

Location: Bremen Airport

Current Time: Mar 6, 2015 at 10:39:37 PM

Latest Report: Mar 6, 2015 at 9:50 PM


Visibility: N/A

Pressure: 30.48 "Hg

Humidity: 76%

Dew point: 37 °F

Location of WeyheLocation

Historic Weather in Weyhe — Graph

°F

Weyhe temperature yesterday

Maximum temperature yesterday: 46 °F (at 1:20 PM)
Minimum temperature yesterday: 34 °F (at 5:20 AM)
Average temperature yesterday: 41 °F

Past Weeks' High & Low Weather Summary

 TemperatureHumidityPressure
High50 °F (Mar 1, 11:50 AM)100% (Feb 20, 3:50 PM)30.57 "Hg (Feb 20, 3:50 PM)
Low28 °F (Feb 28, 4:50 AM)50% (Mar 2, 3:50 PM)29.27 "Hg (Feb 21, 6:50 AM)
Average40 °F85%29.86 "Hg
* Reported Feb 19 9:20 PM — Mar 6 9:20 PM, Weyhe, Weather by CustomWeather, © 2015

Note: Actual official high and low records may vary slightly from our data, if they occured in-between our weather recording intervals... More about our weather records

Advertising

Weyhe weather history for previous 24 hours

 ConditionsComfort  
Time TempWeatherWind HumidityBarometerVisibility
9:20 PM
Fri, Mar 6
45 °FOvercast.8 mph81%30.48 "HgN/A
8:50 PM45 °FOvercast.9 mph81%30.48 "HgN/A
8:20 PM45 °FOvercast.8 mph81%30.51 "HgN/A
7:50 PM46 °FOvercast.9 mph76%30.51 "HgN/A
7:20 PM46 °FPassing clouds.8 mph76%30.51 "HgN/A
6:50 PM46 °FPassing clouds.9 mph76%30.51 "HgN/A
6:20 PM46 °FPassing clouds.9 mph76%30.51 "HgN/A
5:50 PM46 °FPartly sunny.10 mph76%30.48 "HgN/A
5:20 PM46 °FPartly sunny.12 mph76%30.48 "HgN/A
4:50 PM48 °FPartly sunny.12 mph71%30.48 "HgN/A
4:20 PM48 °FPartly sunny.8 mph71%30.48 "HgN/A
3:50 PM48 °FPartly sunny.12 mph71%30.48 "HgN/A
3:20 PM48 °FBroken clouds.14 mph71%30.51 "HgN/A
2:50 PM48 °FPartly sunny.13 mph71%30.48 "HgN/A
2:20 PM50 °FPartly sunny.14 mph67%30.51 "HgN/A
1:50 PM48 °FPartly sunny.15 mph66%30.51 "HgN/A
1:20 PM48 °FPartly sunny.12 mph71%30.51 "HgN/A
12:50 PM48 °FPartly sunny.13 mph66%30.51 "HgN/A
12:20 PM48 °FPartly sunny.13 mph71%30.51 "HgN/A
11:50 AM46 °FPartly sunny.15 mph76%30.54 "HgN/A
11:20 AM46 °FPartly sunny.14 mph76%30.54 "HgN/A
10:50 AM45 °FPartly sunny.13 mph81%30.54 "HgN/A
10:20 AM45 °FPartly sunny.13 mph81%30.51 "HgN/A
9:50 AM43 °FPartly sunny.10 mph81%30.54 "HgN/A
9:20 AM43 °FPartly sunny.12 mph81%30.54 "HgN/A
8:50 AM41 °FPartly sunny.9 mph87%30.54 "HgN/A
8:20 AM41 °FPartly sunny.10 mph87%30.51 "HgN/A
7:50 AM41 °FPartly sunny.10 mph87%30.51 "HgN/A
7:20 AM41 °FPartly sunny.10 mph81%30.51 "HgN/A
6:50 AM41 °FPassing clouds.10 mph87%30.51 "HgN/A
6:20 AM41 °FPassing clouds.10 mph81%30.51 "HgN/A
5:50 AM41 °FPassing clouds.9 mph87%30.54 "HgN/A
5:20 AM41 °FPassing clouds.10 mph87%30.51 "HgN/A
4:50 AM41 °FPassing clouds.12 mph87%30.51 "HgN/A
4:20 AM41 °FPassing clouds.10 mph87%30.54 "HgN/A
3:50 AM41 °FPassing clouds.8 mph87%30.54 "HgN/A
3:20 AM41 °FPassing clouds.8 mph87%30.54 "HgN/A
2:50 AM41 °FPassing clouds.9 mph87%30.54 "HgN/A
2:20 AM39 °FPassing clouds.7 mph93%30.54 "HgN/A
1:50 AM41 °FPassing clouds.8 mph87%30.54 "HgN/A
1:20 AM41 °FPassing clouds.9 mph87%30.54 "HgN/A
12:50 AM41 °FPassing clouds.9 mph87%30.54 "HgN/A
12:20 AM41 °FPassing clouds.9 mph87%30.54 "HgN/A
11:50 PM
Thu, Mar 5
41 °FPassing clouds.9 mph87%30.54 "HgN/A
11:20 PM41 °FPassing clouds.8 mph87%30.57 "HgN/A
10:50 PM39 °FPassing clouds.9 mph87%30.57 "HgN/A
10:20 PM37 °FClear.8 mph87%30.57 "Hg10 mi
Weather by CustomWeather, © 2015

See weather overviewHow to use our weather pages